When you browse on this site, cookies collect data to enhance your experience and personalize the content and advertising you see.
Visit our Privacy Policy to learn more. By continuing to use the site, you agree to this use of cookies and data.
  • în România
  • Lista ţărilor
  • Pe 7 zile
  • Temperatura apei
  • Hartă satelitară
  • Meteo pe hartă
  • Widget-uri
  • user-avatar
    Intrare

    Meteo pe oră la Novolopatinskiy

    Astăzi, 25 Martie, Luni

    Timp Temperatura Precipitaţii Vânt Presiune Umiditate
    00:00 -2°C° 0.7 mm 6 m/s 748 mmHg 96%
    01:00 -1°C° 1.5 mm 5 m/s 747 mmHg 96%
    02:00 -1°C° 1.5 mm 5 m/s 746 mmHg 97%
    03:00 0°C° 0 mm 4 m/s 744 mmHg 99%
    04:00 0°C° 0.5 mm 5 m/s 743 mmHg 98%
    05:00 -1°C° 0.5 mm 5 m/s 742 mmHg 96%
    06:00 -1°C° 0.5 mm 5 m/s 741 mmHg 94%
    07:00 -2°C° 0.1 mm 6 m/s 741 mmHg 94%
    08:00 -2°C° 0.1 mm 6 m/s 742 mmHg 94%
    09:00 -2°C° 0 mm 8 m/s 741 mmHg 94%
    10:00 -2°C° 0.2 mm 8 m/s 742 mmHg 93%
    11:00 -3°C° 0.2 mm 9 m/s 742 mmHg 92%
    12:00 -3°C° 0.2 mm 9 m/s 743 mmHg 91%
    13:00 -3°C° 0.3 mm 9 m/s 743 mmHg 90%
    14:00 -2°C° 0.3 mm 8 m/s 744 mmHg 90%
    15:00 -2°C° 0 mm 7 m/s 745 mmHg 89%
    16:00 -2°C° 0.2 mm 7 m/s 745 mmHg 88%
    17:00 -2°C° 0.2 mm 7 m/s 746 mmHg 88%
    18:00 -2°C° 0.2 mm 7 m/s 747 mmHg 88%
    19:00 -2°C° 0.1 mm 7 m/s 747 mmHg 87%
    20:00 -3°C° 0.1 mm 7 m/s 748 mmHg 87%
    21:00 -3°C° 0.1 mm 6 m/s 749 mmHg 86%
    22:00 -3°C° 0 mm 6 m/s 750 mmHg 87%
    23:00 -4°C° 0 mm 6 m/s 750 mmHg 88%

    Mâine, 26 Martie, Marţi

    Timp Temperatura Precipitaţii Vânt Presiune Umiditate
    00:00 -4°C° 0 mm 6 m/s 751 mmHg 89%
    01:00 -5°C° 0 mm 5 m/s 752 mmHg 89%
    02:00 -5°C° 0 mm 5 m/s 752 mmHg 90%
    03:00 -5°C° 0 mm 4 m/s 753 mmHg 91%
    04:00 -5°C° 0 mm 4 m/s 754 mmHg 92%
    05:00 -7°C° 0 mm 4 m/s 754 mmHg 92%
    06:00 -6°C° 0 mm 3 m/s 755 mmHg 93%
    07:00 -5°C° 0 mm 3 m/s 755 mmHg 92%
    08:00 -4°C° 0 mm 4 m/s 756 mmHg 90%
    09:00 -3°C° 0 mm 4 m/s 756 mmHg 89%
    10:00 -3°C° 0 mm 4 m/s 756 mmHg 90%
    11:00 -2°C° 0 mm 4 m/s 757 mmHg 92%
    12:00 -2°C° 0 mm 5 m/s 757 mmHg 94%
    13:00 -1°C° 0 mm 4 m/s 757 mmHg 93%
    14:00 -1°C° 0 mm 4 m/s 757 mmHg 92%
    15:00 -1°C° 0 mm 4 m/s 757 mmHg 92%
    16:00 -1°C° 0 mm 4 m/s 756 mmHg 90%
    17:00 -2°C° 0 mm 5 m/s 756 mmHg 88%
    18:00 -2°C° 0 mm 5 m/s 755 mmHg 86%
    19:00 -2°C° 0.9 mm 6 m/s 755 mmHg 86%
    20:00 -1°C° 0.9 mm 7 m/s 755 mmHg 86%
    21:00 -1°C° 0.9 mm 8 m/s 754 mmHg 86%
    22:00 -1°C° 0.6 mm 8 m/s 754 mmHg 89%
    23:00 -1°C° 0.6 mm 7 m/s 755 mmHg 93%

    Poimâine, 27 Martie, Miercuri

    Timp Temperatura Precipitaţii Vânt Presiune Umiditate
    00:00 -1°C° 0.6 mm 7 m/s 755 mmHg 97%
    01:00 -1°C° 0.1 mm 6 m/s 755 mmHg 97%
    02:00 0°C° 0.1 mm 5 m/s 755 mmHg 98%
    03:00 0°C° 0.1 mm 4 m/s 756 mmHg 98%
    04:00 0°C° 0.2 mm 4 m/s 756 mmHg 98%
    05:00 -1°C° 0.2 mm 4 m/s 756 mmHg 99%
    06:00 0°C° 0.2 mm 3 m/s 756 mmHg 99%
    07:00 0°C° 0.4 mm 3 m/s 756 mmHg 99%
    08:00 0°C° 0.4 mm 3 m/s 756 mmHg 99%
    09:00 0°C° 0.4 mm 3 m/s 757 mmHg 99%
    10:00 0°C° 0.1 mm 4 m/s 757 mmHg 98%
    11:00 0°C° 0.1 mm 5 m/s 757 mmHg 96%
    12:00 0°C° 0.1 mm 5 m/s 757 mmHg 95%
    13:00 0°C° 0 mm 5 m/s 757 mmHg 93%
    14:00 0°C° 0 mm 5 m/s 756 mmHg 91%
    15:00 -1°C° 0 mm 6 m/s 756 mmHg 89%
    16:00 0°C° 0 mm 5 m/s 756 mmHg 88%
    17:00 0°C° 0 mm 5 m/s 756 mmHg 87%
    18:00 -1°C° 0 mm 4 m/s 756 mmHg 86%
    19:00 -1°C° 0 mm 5 m/s 756 mmHg 86%
    20:00 -1°C° 0 mm 5 m/s 756 mmHg 85%
    21:00 -1°C° 0 mm 5 m/s 756 mmHg 84%
    22:00 -1°C° 0 mm 4 m/s 756 mmHg 84%
    23:00 -1°C° 0 mm 4 m/s 755 mmHg 84%

    28 Martie, Joi

    Timp Temperatura Precipitaţii Vânt Presiune Umiditate
    00:00 -1°C° 0 mm 4 m/s 755 mmHg 84%
    01:00 -1°C° 0 mm 3 m/s 755 mmHg 85%
    02:00 -1°C° 0 mm 2 m/s 755 mmHg 86%
    03:00 +1°C° 0 mm 1 m/s 755 mmHg 86%
    04:00 +1°C° 0.1 mm 1 m/s 754 mmHg 87%
    05:00 +1°C° 0.1 mm 1 m/s 754 mmHg 88%
    06:00 +1°C° 0.1 mm 1 m/s 754 mmHg 88%
    07:00 +1°C° 0.5 mm 1 m/s 754 mmHg 91%
    08:00 +1°C° 0.5 mm 1 m/s 754 mmHg 94%
    09:00 +1°C° 0.5 mm 1 m/s 754 mmHg 96%
    10:00 +1°C° 0.6 mm 1 m/s 754 mmHg 97%
    11:00 +1°C° 0.6 mm 2 m/s 754 mmHg 98%
    12:00 0°C° 0.6 mm 3 m/s 754 mmHg 98%
    13:00 0°C° 0.4 mm 3 m/s 754 mmHg 97%
    14:00 0°C° 0.4 mm 3 m/s 754 mmHg 96%
    15:00 -1°C° 0.4 mm 4 m/s 754 mmHg 95%
    16:00 -1°C° 0 mm 4 m/s 754 mmHg 92%
    17:00 -1°C° 0 mm 3 m/s 754 mmHg 90%
    18:00 -1°C° 0 mm 3 m/s 755 mmHg 87%
    19:00 -2°C° 0 mm 3 m/s 755 mmHg 88%
    20:00 -4°C° 0 mm 3 m/s 755 mmHg 89%
    21:00 -5°C° 0 mm 3 m/s 755 mmHg 90%
    22:00 -5°C° 0 mm 3 m/s 755 mmHg 90%
    23:00 -5°C° 0 mm 3 m/s 755 mmHg 90%

    29 Martie, Vineri

    Timp Temperatura Precipitaţii Vânt Presiune Umiditate
    00:00 -5°C° 0 mm 3 m/s 755 mmHg 91%
    01:00 -6°C° 0 mm 3 m/s 755 mmHg 90%
    02:00 -6°C° 0 mm 3 m/s 755 mmHg 90%
    03:00 -6°C° 0 mm 3 m/s 755 mmHg 90%
    04:00 -7°C° 0 mm 4 m/s 754 mmHg 91%
    05:00 -7°C° 0 mm 4 m/s 754 mmHg 92%
    06:00 -7°C° 0 mm 4 m/s 754 mmHg 94%
    07:00 -4°C° 0 mm 4 m/s 754 mmHg 92%
    08:00 -3°C° 0 mm 4 m/s 754 mmHg 91%
    09:00 -2°C° 0 mm 4 m/s 754 mmHg 89%
    10:00 -2°C° 0 mm 4 m/s 754 mmHg 89%
    11:00 -2°C° 0 mm 5 m/s 754 mmHg 88%
    12:00 -2°C° 0 mm 5 m/s 754 mmHg 88%
    13:00 -2°C° 0.1 mm 5 m/s 753 mmHg 85%
    14:00 -3°C° 0.1 mm 6 m/s 753 mmHg 83%
    15:00 -3°C° 0.1 mm 6 m/s 753 mmHg 80%
    16:00 -2°C° 0 mm 5 m/s 752 mmHg 81%
    17:00 -4°C° 0 mm 5 m/s 752 mmHg 82%
    18:00 -4°C° 0 mm 5 m/s 752 mmHg 83%
    19:00 -4°C° 0 mm 5 m/s 752 mmHg 83%
    20:00 -5°C° 0 mm 5 m/s 752 mmHg 84%
    21:00 -5°C° 0 mm 5 m/s 751 mmHg 85%
    22:00 -5°C° 0 mm 5 m/s 751 mmHg 85%
    23:00 -5°C° 0 mm 5 m/s 751 mmHg 86%

    30 Martie, Sâmbătă

    Timp Temperatura Precipitaţii Vânt Presiune Umiditate
    00:00 -5°C° 0 mm 5 m/s 751 mmHg 86%
    01:00 -4°C° 0 mm 4 m/s 751 mmHg 86%
    02:00 -4°C° 0.1 mm 4 m/s 751 mmHg 87%
    03:00 -4°C° 0.1 mm 4 m/s 751 mmHg 88%
    04:00 -4°C° 0 mm 4 m/s 751 mmHg 88%
    05:00 -4°C° 0 mm 3 m/s 752 mmHg 88%
    06:00 -4°C° 0 mm 3 m/s 752 mmHg 88%
    07:00 -2°C° 0 mm 3 m/s 753 mmHg 88%
    08:00 -2°C° 0 mm 3 m/s 753 mmHg 88%
    09:00 -1°C° 0 mm 3 m/s 753 mmHg 88%
    10:00 0°C° 0 mm 3 m/s 754 mmHg 89%
    11:00 0°C° 0 mm 3 m/s 754 mmHg 91%
    12:00 0°C° 0 mm 4 m/s 754 mmHg 92%
    13:00 +1°C° 0 mm 3 m/s 754 mmHg 91%
    14:00 +1°C° 0 mm 3 m/s 754 mmHg 90%
    15:00 +1°C° 0 mm 3 m/s 755 mmHg 89%
    16:00 0°C° 0 mm 3 m/s 755 mmHg 90%
    17:00 -1°C° 0 mm 2 m/s 755 mmHg 90%
    18:00 -1°C° 0 mm 2 m/s 755 mmHg 90%
    19:00 -2°C° 0 mm 2 m/s 755 mmHg 90%
    20:00 -2°C° 0 mm 2 m/s 756 mmHg 91%
    21:00 -3°C° 0 mm 2 m/s 756 mmHg 91%
    22:00 -3°C° 0 mm 2 m/s 756 mmHg 91%
    23:00 -4°C° 0 mm 3 m/s 756 mmHg 91%
    Arată mai mult